owner,sensor,date,latitude,longitude,vertical_datum,mass_concentration_of_oxygen_in_sea_water,qcFlag 
SCCF RECON,ioos:station:SCCF:11:1,2014-08-01T00:00:00Z,26.4679,-82.0631,1.84,7.61,1111122 
SCCF RECON,ioos:station:SCCF:11:1,2014-08-01T01:00:00Z,26.4679,-82.0631,1.71,7.38,1111122 
SCCF RECON,ioos:station:SCCF:11:1,2014-08-01T02:00:00Z,26.4679,-82.0631,1.59,6.91,1111122 
SCCF RECON,ioos:station:SCCF:11:1,2014-08-01T03:00:00Z,26.4679,-82.0631,1.55,6.89,1111122 
SCCF RECON,ioos:station:SCCF:11:1,2014-08-01T04:00:00Z,26.4679,-82.0631,1.546,6.5,1111122 
SCCF RECON,ioos:station:SCCF:11:1,2014-08-01T05:00:00Z,26.4679,-82.0631,1.58,6.28,1111122 
SCCF RECON,ioos:station:SCCF:11:1,2014-08-01T06:00:00Z,26.4679,-82.0631,1.707,6.25,1111122 
SCCF RECON,ioos:station:SCCF:11:1,2014-08-01T07:00:00Z,26.4679,-82.0631,1.861,6.09,1111122 
SCCF RECON,ioos:station:SCCF:11:1,2014-08-01T08:00:00Z,26.4679,-82.0631,1.9,5.71,1111122 
SCCF RECON,ioos:station:SCCF:11:1,2014-08-01T09:00:00Z,26.4679,-82.0631,1.93,5.56,1111122 
SCCF RECON,ioos:station:SCCF:11:1,2014-08-01T10:00:00Z,26.4679,-82.0631,1.96,4.99,1111122 
SCCF RECON,ioos:station:SCCF:11:1,2014-08-01T11:00:00Z,26.4679,-82.0631,1.961,5.24,1111122 
SCCF RECON,ioos:station:SCCF:11:1,2014-08-01T12:00:00Z,26.4679,-82.0631,1.91,5.03,1111122 
SCCF RECON,ioos:station:SCCF:11:1,2014-08-01T13:00:00Z,26.4679,-82.0631,1.84,4.65,1111122 
SCCF RECON,ioos:station:SCCF:11:1,2014-08-01T14:00:00Z,26.4679,-82.0631,1.765,4.66,1111122 
SCCF RECON,ioos:station:SCCF:11:1,2014-08-01T15:00:00Z,26.4679,-82.0631,1.68,4.75,1111122 
SCCF RECON,ioos:station:SCCF:11:1,2014-08-01T16:00:00Z,26.4679,-82.0631,1.66,5.12,1111122 
SCCF RECON,ioos:station:SCCF:11:1,2014-08-01T17:00:00Z,26.4679,-82.0631,1.68,4.97,1111122 
SCCF RECON,ioos:station:SCCF:11:1,2014-08-01T18:00:00Z,26.4679,-82.0631,1.76,5.48,1111122 
SCCF RECON,ioos:station:SCCF:11:1,2014-08-01T19:00:00Z,26.4679,-82.0631,1.85,6.48,1111122 
SCCF RECON,ioos:station:SCCF:11:1,2014-08-01T20:00:00Z,26.4679,-82.0631,1.91,6.49,1111122 
SCCF RECON,ioos:station:SCCF:11:1,2014-08-01T21:00:00Z,26.4679,-82.0631,1.936,6.74,1111122 
SCCF RECON,ioos:station:SCCF:11:1,2014-08-01T22:00:00Z,26.4679,-82.0631,1.96,7.73,1111122 
SCCF RECON,ioos:station:SCCF:11:1,2014-08-01T23:00:00Z,26.4679,-82.0631,1.94,7.46,1111122 
SCCF RECON,ioos:station:SCCF:11:1,2014-08-02T00:00:00Z,26.4679,-82.0631,1.89,7.16,1111122 
SCCF RECON,ioos:station:SCCF:11:1,2014-08-02T01:00:00Z,26.4679,-82.0631,1.8,6.93,1111122 
SCCF RECON,ioos:station:SCCF:11:1,2014-08-02T02:00:00Z,26.4679,-82.0631,1.72,6.52,1111122 
SCCF RECON,ioos:station:SCCF:11:1,2014-08-02T03:00:00Z,26.4679,-82.0631,1.65,6.15,1111122 
SCCF RECON,ioos:station:SCCF:11:1,2014-08-02T04:00:00Z,26.4679,-82.0631,1.6,5.46,1111122 
SCCF RECON,ioos:station:SCCF:11:1,2014-08-02T05:00:00Z,26.4679,-82.0631,1.59,5.46,1111122 
SCCF RECON,ioos:station:SCCF:11:1,2014-08-02T06:00:00Z,26.4679,-82.0631,1.63,5.35,1111122 
SCCF RECON,ioos:station:SCCF:11:1,2014-08-02T07:00:00Z,26.4679,-82.0631,1.741,5.4,1111122 
SCCF RECON,ioos:station:SCCF:11:1,2014-08-02T08:00:00Z,26.4679,-82.0631,1.9,5.25,1111122 
SCCF RECON,ioos:station:SCCF:11:1,2014-08-02T09:00:00Z,26.4679,-82.0631,1.94,5.37,1111122 
SCCF RECON,ioos:station:SCCF:11:1,2014-08-02T10:00:00Z,26.4679,-82.0631,1.97,4.66,1111122 
SCCF RECON,ioos:station:SCCF:11:1,2014-08-02T11:00:00Z,26.4679,-82.0631,1.97,5.01,1111122 
SCCF RECON,ioos:station:SCCF:11:1,2014-08-02T12:00:00Z,26.4679,-82.0631,1.96,5.01,1111122 
SCCF RECON,ioos:station:SCCF:11:1,2014-08-02T13:00:00Z,26.4679,-82.0631,1.9,4.58,1111122 
SCCF RECON,ioos:station:SCCF:11:1,2014-08-02T14:00:00Z,26.4679,-82.0631,1.83,4.41,1111122 
SCCF RECON,ioos:station:SCCF:11:1,2014-08-02T15:00:00Z,26.4679,-82.0631,1.75,4.83,1111122 
SCCF RECON,ioos:station:SCCF:11:1,2014-08-02T16:00:00Z,26.4679,-82.0631,1.68,5.1,1111122 
SCCF RECON,ioos:station:SCCF:11:1,2014-08-02T17:00:00Z,26.4679,-82.0631,1.651,5.55,1111122 
SCCF RECON,ioos:station:SCCF:11:1,2014-08-02T18:00:00Z,26.4679,-82.0631,1.66,6.12,1111122 
SCCF RECON,ioos:station:SCCF:11:1,2014-08-02T19:00:00Z,26.4679,-82.0631,1.73,6.72,1111122 
SCCF RECON,ioos:station:SCCF:11:1,2014-08-02T20:00:00Z,26.4679,-82.0631,1.82,7.33,1111122 
SCCF RECON,ioos:station:SCCF:11:1,2014-08-02T21:00:00Z,26.4679,-82.0631,1.89,7.41,1111122 
SCCF RECON,ioos:station:SCCF:11:1,2014-08-02T22:00:00Z,26.4679,-82.0631,1.9,7.48,1111122 
SCCF RECON,ioos:station:SCCF:11:1,2014-08-02T23:00:00Z,26.4679,-82.0631,1.89,7.04,1111122 
SCCF RECON,ioos:station:SCCF:11:1,2014-08-03T00:00:00Z,26.4679,-82.0631,1.89,8.21,1111122 
SCCF RECON,ioos:station:SCCF:11:1,2014-08-03T01:00:00Z,26.4679,-82.0631,1.84,7.29,1111122 
SCCF RECON,ioos:station:SCCF:11:1,2014-08-03T02:00:00Z,26.4679,-82.0631,1.79,6.99,1111122 
SCCF RECON,ioos:station:SCCF:11:1,2014-08-03T03:00:00Z,26.4679,-82.0631,1.752,6.91,1111122 
SCCF RECON,ioos:station:SCCF:11:1,2014-08-03T04:00:00Z,26.4679,-82.0631,1.73,6.69,1111122 
SCCF RECON,ioos:station:SCCF:11:1,2014-08-03T05:00:00Z,26.4679,-82.0631,1.69,6.27,1111122 
SCCF RECON,ioos:station:SCCF:11:1,2014-08-03T06:00:00Z,26.4679,-82.0631,1.67,5.73,1111122 
SCCF RECON,ioos:station:SCCF:11:1,2014-08-03T07:00:00Z,26.4679,-82.0631,1.7,5.75,1111122 
SCCF RECON,ioos:station:SCCF:11:1,2014-08-03T08:00:00Z,26.4679,-82.0631,1.76,5.4,1111122 
SCCF RECON,ioos:station:SCCF:11:1,2014-08-03T09:00:00Z,26.4679,-82.0631,1.85,5.54,1111122 
SCCF RECON,ioos:station:SCCF:11:1,2014-08-03T10:00:00Z,26.4679,-82.0631,2.06,5.0,1111122 
SCCF RECON,ioos:station:SCCF:11:1,2014-08-03T11:00:00Z,26.4679,-82.0631,2.069,4.93,1111122 
SCCF RECON,ioos:station:SCCF:11:1,2014-08-03T12:00:00Z,26.4679,-82.0631,2.05,5.16,1111122 
SCCF RECON,ioos:station:SCCF:11:1,2014-08-03T13:00:00Z,26.4679,-82.0631,2.0,4.86,1111122 
SCCF RECON,ioos:station:SCCF:11:1,2014-08-03T14:00:00Z,26.4679,-82.0631,1.882,4.93,1111122 
SCCF RECON,ioos:station:SCCF:11:1,2014-08-03T15:00:00Z,26.4679,-82.0631,1.76,5.17,1111122 
SCCF RECON,ioos:station:SCCF:11:1,2014-08-03T16:00:00Z,26.4679,-82.0631,1.68,5.63,1111122 
SCCF RECON,ioos:station:SCCF:11:1,2014-08-03T17:00:00Z,26.4679,-82.0631,1.621,6.45,1111122 
SCCF RECON,ioos:station:SCCF:11:1,2014-08-03T18:00:00Z,26.4679,-82.0631,1.61,6.14,1111122 
SCCF RECON,ioos:station:SCCF:11:1,2014-08-03T19:00:00Z,26.4679,-82.0631,1.64,7.12,1111122 
SCCF RECON,ioos:station:SCCF:11:1,2014-08-03T20:00:00Z,26.4679,-82.0631,1.67,6.98,1111122 
SCCF RECON,ioos:station:SCCF:11:1,2014-08-03T21:00:00Z,26.4679,-82.0631,1.737,8.06,1111122 
SCCF RECON,ioos:station:SCCF:11:1,2014-08-03T22:00:00Z,26.4679,-82.0631,1.771,7.86,1111122 
SCCF RECON,ioos:station:SCCF:11:1,2014-08-03T23:00:00Z,26.4679,-82.0631,1.8,7.9,1111122 
SCCF RECON,ioos:station:SCCF:11:1,2014-08-04T00:00:00Z,26.4679,-82.0631,1.81,7.02,1111122 
SCCF RECON,ioos:station:SCCF:11:1,2014-08-04T01:00:00Z,26.4679,-82.0631,1.82,7.07,1111122 
SCCF RECON,ioos:station:SCCF:11:1,2014-08-04T02:00:00Z,26.4679,-82.0631,1.82,6.91,1111122 
SCCF RECON,ioos:station:SCCF:11:1,2014-08-04T03:00:00Z,26.4679,-82.0631,1.81,7.18,1111122 
SCCF RECON,ioos:station:SCCF:11:1,2014-08-04T04:00:00Z,26.4679,-82.0631,1.79,7.06,1111122 
SCCF RECON,ioos:station:SCCF:11:1,2014-08-04T05:00:00Z,26.4679,-82.0631,1.76,6.49,1111122 
SCCF RECON,ioos:station:SCCF:11:1,2014-08-04T06:00:00Z,26.4679,-82.0631,1.7,6.5,1111122 
SCCF RECON,ioos:station:SCCF:11:1,2014-08-04T07:00:00Z,26.4679,-82.0631,1.68,5.49,1111122 
SCCF RECON,ioos:station:SCCF:11:1,2014-08-04T08:00:00Z,26.4679,-82.0631,1.77,5.13,1111122 
SCCF RECON,ioos:station:SCCF:11:1,2014-08-04T09:00:00Z,26.4679,-82.0631,1.94,4.42,1111122 
SCCF RECON,ioos:station:SCCF:11:1,2014-08-04T10:00:00Z,26.4679,-82.0631,2.0,4.43,1111122 
SCCF RECON,ioos:station:SCCF:11:1,2014-08-04T11:00:00Z,26.4679,-82.0631,2.09,4.72,1111122 
SCCF RECON,ioos:station:SCCF:11:1,2014-08-04T12:00:00Z,26.4679,-82.0631,2.1,4.65,1111122 
SCCF RECON,ioos:station:SCCF:11:1,2014-08-04T13:00:00Z,26.4679,-82.0631,2.1,4.58,1111122 
SCCF RECON,ioos:station:SCCF:11:1,2014-08-04T14:00:00Z,26.4679,-82.0631,2.05,4.68,1111122 
SCCF RECON,ioos:station:SCCF:11:1,2014-08-04T15:00:00Z,26.4679,-82.0631,1.97,4.82,1111122 
SCCF RECON,ioos:station:SCCF:11:1,2014-08-04T16:00:00Z,26.4679,-82.0631,1.9,5.03,1111122 
SCCF RECON,ioos:station:SCCF:11:1,2014-08-04T17:00:00Z,26.4679,-82.0631,1.85,5.45,1111122 
SCCF RECON,ioos:station:SCCF:11:1,2014-08-04T18:00:00Z,26.4679,-82.0631,1.77,5.44,1111122 
SCCF RECON,ioos:station:SCCF:11:1,2014-08-04T19:00:00Z,26.4679,-82.0631,1.71,5.16,1111122 
SCCF RECON,ioos:station:SCCF:11:1,2014-08-04T20:00:00Z,26.4679,-82.0631,1.66,4.96,1111122 
SCCF RECON,ioos:station:SCCF:11:1,2014-08-04T21:00:00Z,26.4679,-82.0631,1.67,5.02,1111122 
SCCF RECON,ioos:station:SCCF:11:1,2014-08-04T22:00:00Z,26.4679,-82.0631,1.67,4.94,1111122 
SCCF RECON,ioos:station:SCCF:11:1,2014-08-04T23:00:00Z,26.4679,-82.0631,1.72,5.09,1111122 
SCCF RECON,ioos:station:SCCF:11:1,2014-08-05T00:00:00Z,26.4679,-82.0631,1.77,4.78,1111122 
SCCF RECON,ioos:station:SCCF:11:1,2014-08-05T01:00:00Z,26.4679,-82.0631,1.79,4.73,1111122 
SCCF RECON,ioos:station:SCCF:11:1,2014-08-05T02:00:00Z,26.4679,-82.0631,1.82,5.11,1111122 
SCCF RECON,ioos:station:SCCF:11:1,2014-08-05T03:00:00Z,26.4679,-82.0631,1.85,4.96,1111122 
SCCF RECON,ioos:station:SCCF:11:1,2014-08-05T04:00:00Z,26.4679,-82.0631,1.85,4.75,1111122 
SCCF RECON,ioos:station:SCCF:11:1,2014-08-05T05:00:00Z,26.4679,-82.0631,1.84,4.45,1111122 
SCCF RECON,ioos:station:SCCF:11:1,2014-08-05T06:00:00Z,26.4679,-82.0631,1.81,4.25,1111122 
SCCF RECON,ioos:station:SCCF:11:1,2014-08-05T07:00:00Z,26.4679,-82.0631,1.8,4.26,1111122 
SCCF RECON,ioos:station:SCCF:11:1,2014-08-05T08:00:00Z,26.4679,-82.0631,1.82,3.64,1111122 
SCCF RECON,ioos:station:SCCF:11:1,2014-08-05T09:00:00Z,26.4679,-82.0631,1.89,3.9,1111122 
SCCF RECON,ioos:station:SCCF:11:1,2014-08-05T10:00:00Z,26.4679,-82.0631,1.99,3.93,1111122 
SCCF RECON,ioos:station:SCCF:11:1,2014-08-05T11:00:00Z,26.4679,-82.0631,2.17,3.47,1111122 
SCCF RECON,ioos:station:SCCF:11:1,2014-08-05T12:00:00Z,26.4679,-82.0631,2.19,3.77,1111122 
SCCF RECON,ioos:station:SCCF:11:1,2014-08-05T13:00:00Z,26.4679,-82.0631,2.18,3.74,1111122 
SCCF RECON,ioos:station:SCCF:11:1,2014-08-05T14:00:00Z,26.4679,-82.0631,2.12,4.02,1111122 
SCCF RECON,ioos:station:SCCF:11:1,2014-08-05T15:00:00Z,26.4679,-82.0631,2.01,4.36,1111122 
SCCF RECON,ioos:station:SCCF:11:1,2014-08-05T16:00:00Z,26.4679,-82.0631,1.92,4.41,1111122 
SCCF RECON,ioos:station:SCCF:11:1,2014-08-05T17:00:00Z,26.4679,-82.0631,1.774,4.82,1111122 
SCCF RECON,ioos:station:SCCF:11:1,2014-08-05T18:00:00Z,26.4679,-82.0631,1.664,5.1,1111122 
SCCF RECON,ioos:station:SCCF:11:1,2014-08-05T19:00:00Z,26.4679,-82.0631,1.56,5.69,1111122 
SCCF RECON,ioos:station:SCCF:11:1,2014-08-05T20:00:00Z,26.4679,-82.0631,1.48,6.32,1111122 
SCCF RECON,ioos:station:SCCF:11:1,2014-08-05T21:00:00Z,26.4679,-82.0631,1.48,6.98,1111122 
SCCF RECON,ioos:station:SCCF:11:1,2014-08-05T22:00:00Z,26.4679,-82.0631,1.53,6.88,1111122 
SCCF RECON,ioos:station:SCCF:11:1,2014-08-05T23:00:00Z,26.4679,-82.0631,1.6,7.38,1111122 
SCCF RECON,ioos:station:SCCF:11:1,2014-08-06T00:00:00Z,26.4679,-82.0631,1.656,7.73,1111122 
SCCF RECON,ioos:station:SCCF:11:1,2014-08-06T01:00:00Z,26.4679,-82.0631,1.83,6.82,1111122 
SCCF RECON,ioos:station:SCCF:11:1,2014-08-06T02:00:00Z,26.4679,-82.0631,1.87,6.21,1111122 
SCCF RECON,ioos:station:SCCF:11:1,2014-08-06T03:00:00Z,26.4679,-82.0631,1.87,6.39,1111122 
SCCF RECON,ioos:station:SCCF:11:1,2014-08-06T04:00:00Z,26.4679,-82.0631,1.87,5.79,1111122 
SCCF RECON,ioos:station:SCCF:11:1,2014-08-06T05:00:00Z,26.4679,-82.0631,1.84,6.17,1111122 
SCCF RECON,ioos:station:SCCF:11:1,2014-08-06T06:00:00Z,26.4679,-82.0631,1.78,6.27,1111122 
SCCF RECON,ioos:station:SCCF:11:1,2014-08-06T07:00:00Z,26.4679,-82.0631,1.76,5.73,1111122 
SCCF RECON,ioos:station:SCCF:11:1,2014-08-06T08:00:00Z,26.4679,-82.0631,1.77,5.78,1111122 
SCCF RECON,ioos:station:SCCF:11:1,2014-08-06T09:00:00Z,26.4679,-82.0631,1.79,5.59,1111122 
SCCF RECON,ioos:station:SCCF:11:1,2014-08-06T10:00:00Z,26.4679,-82.0631,1.89,4.37,1111122 
SCCF RECON,ioos:station:SCCF:11:1,2014-08-06T11:00:00Z,26.4679,-82.0631,2.04,4.32,1111122 
SCCF RECON,ioos:station:SCCF:11:1,2014-08-06T12:00:00Z,26.4679,-82.0631,2.11,4.51,1111122 
SCCF RECON,ioos:station:SCCF:11:1,2014-08-06T13:00:00Z,26.4679,-82.0631,2.14,4.69,1111122 
SCCF RECON,ioos:station:SCCF:11:1,2014-08-06T14:00:00Z,26.4679,-82.0631,2.12,4.03,1111122 
SCCF RECON,ioos:station:SCCF:11:1,2014-08-06T15:00:00Z,26.4679,-82.0631,2.09,5.27,1111122 
SCCF RECON,ioos:station:SCCF:11:1,2014-08-06T16:00:00Z,26.4679,-82.0631,2.01,6.14,1111122 
SCCF RECON,ioos:station:SCCF:11:1,2014-08-06T17:00:00Z,26.4679,-82.0631,1.841,6.41,1111122 
SCCF RECON,ioos:station:SCCF:11:1,2014-08-06T18:00:00Z,26.4679,-82.0631,1.69,6.85,1111122 
SCCF RECON,ioos:station:SCCF:11:1,2014-08-06T19:00:00Z,26.4679,-82.0631,1.57,7.74,1111122 
SCCF RECON,ioos:station:SCCF:11:1,2014-08-06T20:00:00Z,26.4679,-82.0631,1.453,8.41,1111122 
SCCF RECON,ioos:station:SCCF:11:1,2014-08-06T21:00:00Z,26.4679,-82.0631,1.4,8.42,1111122 
SCCF RECON,ioos:station:SCCF:11:1,2014-08-06T22:00:00Z,26.4679,-82.0631,1.41,8.42,1111122 
SCCF RECON,ioos:station:SCCF:11:1,2014-08-06T23:00:00Z,26.4679,-82.0631,1.455,7.75,1111122 
SCCF RECON,ioos:station:SCCF:11:1,2014-08-07T00:00:00Z,26.4679,-82.0631,1.631,8.09,1111122 
SCCF RECON,ioos:station:SCCF:11:1,2014-08-07T01:00:00Z,26.4679,-82.0631,1.75,7.82,1111122 
SCCF RECON,ioos:station:SCCF:11:1,2014-08-07T02:00:00Z,26.4679,-82.0631,1.8,7.64,1111122 
SCCF RECON,ioos:station:SCCF:11:1,2014-08-07T03:00:00Z,26.4679,-82.0631,1.87,7.28,1111122 
SCCF RECON,ioos:station:SCCF:11:1,2014-08-07T04:00:00Z,26.4679,-82.0631,1.931,6.8,1111122 
SCCF RECON,ioos:station:SCCF:11:1,2014-08-07T05:00:00Z,26.4679,-82.0631,1.93,6.58,1111122 
SCCF RECON,ioos:station:SCCF:11:1,2014-08-07T06:00:00Z,26.4679,-82.0631,1.89,6.64,1111122 
SCCF RECON,ioos:station:SCCF:11:1,2014-08-07T07:00:00Z,26.4679,-82.0631,1.82,6.77,1111122 
SCCF RECON,ioos:station:SCCF:11:1,2014-08-07T08:00:00Z,26.4679,-82.0631,1.79,6.42,1111122 
SCCF RECON,ioos:station:SCCF:11:1,2014-08-07T09:00:00Z,26.4679,-82.0631,1.793,6.05,1111122 
SCCF RECON,ioos:station:SCCF:11:1,2014-08-07T10:00:00Z,26.4679,-82.0631,1.82,5.02,1111122 
SCCF RECON,ioos:station:SCCF:11:1,2014-08-07T11:00:00Z,26.4679,-82.0631,2.02,5.09,1111122 
SCCF RECON,ioos:station:SCCF:11:1,2014-08-07T12:00:00Z,26.4679,-82.0631,2.07,5.74,1111122 
SCCF RECON,ioos:station:SCCF:11:1,2014-08-07T13:00:00Z,26.4679,-82.0631,2.12,5.83,1111122 
SCCF RECON,ioos:station:SCCF:11:1,2014-08-07T14:00:00Z,26.4679,-82.0631,2.21,5.37,1111122 
SCCF RECON,ioos:station:SCCF:11:1,2014-08-07T15:00:00Z,26.4679,-82.0631,2.207,5.34,1111122 
SCCF RECON,ioos:station:SCCF:11:1,2014-08-07T16:00:00Z,26.4679,-82.0631,2.17,4.6,1111122 
SCCF RECON,ioos:station:SCCF:11:1,2014-08-07T17:00:00Z,26.4679,-82.0631,2.049,6.34,1111122 
SCCF RECON,ioos:station:SCCF:11:1,2014-08-07T18:00:00Z,26.4679,-82.0631,1.86,6.26,1111122 
SCCF RECON,ioos:station:SCCF:11:1,2014-08-07T19:00:00Z,26.4679,-82.0631,1.706,6.35,1111122 
SCCF RECON,ioos:station:SCCF:11:1,2014-08-07T20:00:00Z,26.4679,-82.0631,1.55,6.66,1111122 
SCCF RECON,ioos:station:SCCF:11:1,2014-08-07T21:00:00Z,26.4679,-82.0631,1.44,7.15,1111122 
SCCF RECON,ioos:station:SCCF:11:1,2014-08-07T22:00:00Z,26.4679,-82.0631,1.37,7.93,1111122 
SCCF RECON,ioos:station:SCCF:11:1,2014-08-07T23:00:00Z,26.4679,-82.0631,1.39,7.46,1111122 
SCCF RECON,ioos:station:SCCF:11:1,2014-08-08T00:00:00Z,26.4679,-82.0631,1.44,6.66,1111122 
SCCF RECON,ioos:station:SCCF:11:1,2014-08-08T01:00:00Z,26.4679,-82.0631,1.69,6.9,1111122 
SCCF RECON,ioos:station:SCCF:11:1,2014-08-08T02:00:00Z,26.4679,-82.0631,1.74,6.99,1111122 
SCCF RECON,ioos:station:SCCF:11:1,2014-08-08T03:00:00Z,26.4679,-82.0631,1.9,6.64,1111122 
SCCF RECON,ioos:station:SCCF:11:1,2014-08-08T04:00:00Z,26.4679,-82.0631,1.94,6.56,1111122 
SCCF RECON,ioos:station:SCCF:11:1,2014-08-08T05:00:00Z,26.4679,-82.0631,1.96,6.33,1111122 
SCCF RECON,ioos:station:SCCF:11:1,2014-08-08T06:00:00Z,26.4679,-82.0631,1.96,5.94,1111122 
SCCF RECON,ioos:station:SCCF:11:1,2014-08-08T07:00:00Z,26.4679,-82.0631,1.92,5.78,1111122 
SCCF RECON,ioos:station:SCCF:11:1,2014-08-08T08:00:00Z,26.4679,-82.0631,1.87,5.78,1111122 
SCCF RECON,ioos:station:SCCF:11:1,2014-08-08T09:00:00Z,26.4679,-82.0631,1.81,5.53,1111122 
SCCF RECON,ioos:station:SCCF:11:1,2014-08-08T10:00:00Z,26.4679,-82.0631,1.79,5.32,1111122 
SCCF RECON,ioos:station:SCCF:11:1,2014-08-08T11:00:00Z,26.4679,-82.0631,1.84,4.58,1111122 
SCCF RECON,ioos:station:SCCF:11:1,2014-08-08T12:00:00Z,26.4679,-82.0631,2.06,4.43,1111122 
SCCF RECON,ioos:station:SCCF:11:1,2014-08-08T13:00:00Z,26.4679,-82.0631,2.19,5.26,1111122 
SCCF RECON,ioos:station:SCCF:11:1,2014-08-08T14:00:00Z,26.4679,-82.0631,2.31,5.04,1111122 
SCCF RECON,ioos:station:SCCF:11:1,2014-08-08T15:00:00Z,26.4679,-82.0631,2.35,5.13,1111122 
SCCF RECON,ioos:station:SCCF:11:1,2014-08-08T16:00:00Z,26.4679,-82.0631,2.32,5.52,1111122 
SCCF RECON,ioos:station:SCCF:11:1,2014-08-08T17:00:00Z,26.4679,-82.0631,2.25,6.93,1111122 
SCCF RECON,ioos:station:SCCF:11:1,2014-08-08T18:00:00Z,26.4679,-82.0631,2.04,6.8,1111122 
SCCF RECON,ioos:station:SCCF:11:1,2014-08-08T19:00:00Z,26.4679,-82.0631,1.89,7.18,1111122 
SCCF RECON,ioos:station:SCCF:11:1,2014-08-08T20:00:00Z,26.4679,-82.0631,1.732,7.35,1111122 
SCCF RECON,ioos:station:SCCF:11:1,2014-08-08T21:00:00Z,26.4679,-82.0631,1.584,7.41,1111122 
SCCF RECON,ioos:station:SCCF:11:1,2014-08-08T22:00:00Z,26.4679,-82.0631,1.47,7.45,1111122 
SCCF RECON,ioos:station:SCCF:11:1,2014-08-08T23:00:00Z,26.4679,-82.0631,1.41,7.45,1111122 
SCCF RECON,ioos:station:SCCF:11:1,2014-08-09T00:00:00Z,26.4679,-82.0631,1.41,7.24,1111122 
SCCF RECON,ioos:station:SCCF:11:1,2014-08-09T01:00:00Z,26.4679,-82.0631,1.46,6.64,1111122 
SCCF RECON,ioos:station:SCCF:11:1,2014-08-09T02:00:00Z,26.4679,-82.0631,1.711,7.26,1111122 
SCCF RECON,ioos:station:SCCF:11:1,2014-08-09T03:00:00Z,26.4679,-82.0631,1.76,6.9,1111122 
SCCF RECON,ioos:station:SCCF:11:1,2014-08-09T04:00:00Z,26.4679,-82.0631,1.94,6.69,1111122 
SCCF RECON,ioos:station:SCCF:11:1,2014-08-09T05:00:00Z,26.4679,-82.0631,2.01,6.4,1111122 
SCCF RECON,ioos:station:SCCF:11:1,2014-08-09T06:00:00Z,26.4679,-82.0631,2.02,6.19,1111122 
SCCF RECON,ioos:station:SCCF:11:1,2014-08-09T07:00:00Z,26.4679,-82.0631,1.98,6.37,1111122 
SCCF RECON,ioos:station:SCCF:11:1,2014-08-09T08:00:00Z,26.4679,-82.0631,1.921,5.94,1111122 
SCCF RECON,ioos:station:SCCF:11:1,2014-08-09T09:00:00Z,26.4679,-82.0631,1.86,5.73,1111122 
SCCF RECON,ioos:station:SCCF:11:1,2014-08-09T10:00:00Z,26.4679,-82.0631,1.78,5.01,1111122 
SCCF RECON,ioos:station:SCCF:11:1,2014-08-09T11:00:00Z,26.4679,-82.0631,1.78,5.01,1111122 
SCCF RECON,ioos:station:SCCF:11:1,2014-08-09T12:00:00Z,26.4679,-82.0631,1.83,4.55,1111122 
SCCF RECON,ioos:station:SCCF:11:1,2014-08-09T13:00:00Z,26.4679,-82.0631,2.01,5.33,1111122 
SCCF RECON,ioos:station:SCCF:11:1,2014-08-09T14:00:00Z,26.4679,-82.0631,2.18,5.75,1111122 
SCCF RECON,ioos:station:SCCF:11:1,2014-08-09T15:00:00Z,26.4679,-82.0631,2.27,5.48,1111122 
SCCF RECON,ioos:station:SCCF:11:1,2014-08-09T16:00:00Z,26.4679,-82.0631,2.33,5.64,1111122 
SCCF RECON,ioos:station:SCCF:11:1,2014-08-09T17:00:00Z,26.4679,-82.0631,2.35,5.81,1111122 
SCCF RECON,ioos:station:SCCF:11:1,2014-08-09T18:00:00Z,26.4679,-82.0631,2.22,6.98,1111122 
SCCF RECON,ioos:station:SCCF:11:1,2014-08-09T19:00:00Z,26.4679,-82.0631,2.026,7.03,1111122 
SCCF RECON,ioos:station:SCCF:11:1,2014-08-09T20:00:00Z,26.4679,-82.0631,1.88,7.14,1111122 
SCCF RECON,ioos:station:SCCF:11:1,2014-08-09T21:00:00Z,26.4679,-82.0631,1.71,6.82,1111122 
SCCF RECON,ioos:station:SCCF:11:1,2014-08-09T22:00:00Z,26.4679,-82.0631,1.533,6.65,1111122 
SCCF RECON,ioos:station:SCCF:11:1,2014-08-09T23:00:00Z,26.4679,-82.0631,1.41,6.54,1111122 
SCCF RECON,ioos:station:SCCF:11:1,2014-08-10T00:00:00Z,26.4679,-82.0631,1.38,6.32,1111122 
SCCF RECON,ioos:station:SCCF:11:1,2014-08-10T01:00:00Z,26.4679,-82.0631,1.39,6.38,1111122 
SCCF RECON,ioos:station:SCCF:11:1,2014-08-10T02:00:00Z,26.4679,-82.0631,1.48,6.58,1111122 
SCCF RECON,ioos:station:SCCF:11:1,2014-08-10T03:00:00Z,26.4679,-82.0631,1.74,6.54,1111122 
SCCF RECON,ioos:station:SCCF:11:1,2014-08-10T04:00:00Z,26.4679,-82.0631,1.92,6.37,1111122 
SCCF RECON,ioos:station:SCCF:11:1,2014-08-10T05:00:00Z,26.4679,-82.0631,2.03,6.12,1111122 
SCCF RECON,ioos:station:SCCF:11:1,2014-08-10T06:00:00Z,26.4679,-82.0631,2.06,5.6,1111122 
SCCF RECON,ioos:station:SCCF:11:1,2014-08-10T07:00:00Z,26.4679,-82.0631,2.05,5.71,1111122 
SCCF RECON,ioos:station:SCCF:11:1,2014-08-10T08:00:00Z,26.4679,-82.0631,1.98,5.62,1111122 
SCCF RECON,ioos:station:SCCF:11:1,2014-08-10T09:00:00Z,26.4679,-82.0631,1.849,5.08,1111122 
SCCF RECON,ioos:station:SCCF:11:1,2014-08-10T10:00:00Z,26.4679,-82.0631,1.74,4.74,1111122 
SCCF RECON,ioos:station:SCCF:11:1,2014-08-10T11:00:00Z,26.4679,-82.0631,1.67,4.48,1111122 
SCCF RECON,ioos:station:SCCF:11:1,2014-08-10T12:00:00Z,26.4679,-82.0631,1.688,4.28,1111122 
SCCF RECON,ioos:station:SCCF:11:1,2014-08-10T13:00:00Z,26.4679,-82.0631,1.78,4.69,1111122 
SCCF RECON,ioos:station:SCCF:11:1,2014-08-10T14:00:00Z,26.4679,-82.0631,2.0,5.18,1111122 
SCCF RECON,ioos:station:SCCF:11:1,2014-08-10T15:00:00Z,26.4679,-82.0631,2.16,5.85,1111122 
SCCF RECON,ioos:station:SCCF:11:1,2014-08-10T16:00:00Z,26.4679,-82.0631,2.28,5.4,1111122 
SCCF RECON,ioos:station:SCCF:11:1,2014-08-10T17:00:00Z,26.4679,-82.0631,2.304,5.06,1111122 
SCCF RECON,ioos:station:SCCF:11:1,2014-08-10T18:00:00Z,26.4679,-82.0631,2.31,5.15,1111122 
SCCF RECON,ioos:station:SCCF:11:1,2014-08-10T19:00:00Z,26.4679,-82.0631,2.266,6.77,1111122 
SCCF RECON,ioos:station:SCCF:11:1,2014-08-10T20:00:00Z,26.4679,-82.0631,2.09,6.82,1111122 
SCCF RECON,ioos:station:SCCF:11:1,2014-08-10T21:00:00Z,26.4679,-82.0631,1.86,6.71,1111122 
SCCF RECON,ioos:station:SCCF:11:1,2014-08-10T22:00:00Z,26.4679,-82.0631,1.695,6.53,1111122 
SCCF RECON,ioos:station:SCCF:11:1,2014-08-10T23:00:00Z,26.4679,-82.0631,1.535,6.14,1111122 
SCCF RECON,ioos:station:SCCF:11:1,2014-08-11T00:00:00Z,26.4679,-82.0631,1.411,5.84,1111122 
SCCF RECON,ioos:station:SCCF:11:1,2014-08-11T01:00:00Z,26.4679,-82.0631,1.37,5.47,1111122 
SCCF RECON,ioos:station:SCCF:11:1,2014-08-11T02:00:00Z,26.4679,-82.0631,1.419,5.53,1111122 
SCCF RECON,ioos:station:SCCF:11:1,2014-08-11T03:00:00Z,26.4679,-82.0631,1.65,5.76,1111122 
SCCF RECON,ioos:station:SCCF:11:1,2014-08-11T04:00:00Z,26.4679,-82.0631,1.775,5.75,1111122 
SCCF RECON,ioos:station:SCCF:11:1,2014-08-11T05:00:00Z,26.4679,-82.0631,1.96,5.71,1111122 
SCCF RECON,ioos:station:SCCF:11:1,2014-08-11T06:00:00Z,26.4679,-82.0631,2.07,5.64,1111122 
SCCF RECON,ioos:station:SCCF:11:1,2014-08-11T07:00:00Z,26.4679,-82.0631,2.09,5.38,1111122 
SCCF RECON,ioos:station:SCCF:11:1,2014-08-11T08:00:00Z,26.4679,-82.0631,2.047,5.32,1111122 
SCCF RECON,ioos:station:SCCF:11:1,2014-08-11T09:00:00Z,26.4679,-82.0631,1.9,4.71,1111122 
SCCF RECON,ioos:station:SCCF:11:1,2014-08-11T10:00:00Z,26.4679,-82.0631,1.79,4.45,1111122 
SCCF RECON,ioos:station:SCCF:11:1,2014-08-11T11:00:00Z,26.4679,-82.0631,1.703,4.27,1111122 
SCCF RECON,ioos:station:SCCF:11:1,2014-08-11T12:00:00Z,26.4679,-82.0631,1.63,4.1,1111122 
SCCF RECON,ioos:station:SCCF:11:1,2014-08-11T13:00:00Z,26.4679,-82.0631,1.65,4.1,1111122 
SCCF RECON,ioos:station:SCCF:11:1,2014-08-11T14:00:00Z,26.4679,-82.0631,1.74,4.21,1111122 
SCCF RECON,ioos:station:SCCF:11:1,2014-08-11T15:00:00Z,26.4679,-82.0631,1.98,5.59,1111122 
SCCF RECON,ioos:station:SCCF:11:1,2014-08-11T16:00:00Z,26.4679,-82.0631,2.16,5.49,1111122 
SCCF RECON,ioos:station:SCCF:11:1,2014-08-11T17:00:00Z,26.4679,-82.0631,2.24,5.95,1111122 
SCCF RECON,ioos:station:SCCF:11:1,2014-08-11T18:00:00Z,26.4679,-82.0631,2.3,5.62,1111122 
SCCF RECON,ioos:station:SCCF:11:1,2014-08-11T19:00:00Z,26.4679,-82.0631,2.299,5.54,1111122 
SCCF RECON,ioos:station:SCCF:11:1,2014-08-11T20:00:00Z,26.4679,-82.0631,2.14,6.99,1111122 
SCCF RECON,ioos:station:SCCF:11:1,2014-08-11T21:00:00Z,26.4679,-82.0631,1.96,6.66,1111122 